This is the latest recevied weather packets stored in our database for station/object K3CHZ. If no packets are shown the sender has not sent any weather packets the latest 10 day(s).
| Time | Temp. | Humidity | Pressure | Rain* | Wind** | Luminosity | Snow |
|---|---|---|---|---|---|---|---|
| 1777749438 | 14.44° C | 45% | 1012.6 hPa | 0 mm | - | - | - |
| 1777749138 | 14.44° C | 44% | 1012.7 hPa | 0 mm | - | - | - |
| 1777748838 | 14.44° C | 46% | 1012.7 hPa | 0 mm | - | - | - |
| 1777748538 | 15° C | 44% | 1012.7 hPa | 0 mm | - | - | - |
| 1777748237 | 15° C | 48% | 1012.8 hPa | 0 mm | - | - | - |
| 1777747938 | 14.44° C | 44% | 1012.9 hPa | 0 mm | - | - | - |
| 1777747639 | 13.89° C | 47% | 1013.1 hPa | 0 mm | - | - | - |
| 1777747337 | 13.89° C | 43% | 1013.2 hPa | 0 mm | - | - | - |
| 1777747039 | 13.89° C | 42% | 1013.1 hPa | 0 mm | - | - | - |
| 1777746737 | 13.89° C | 45% | 1013.2 hPa | 0 mm | - | - | - |
| 1777746440 | 13.89° C | 43% | 1013.2 hPa | 0 mm | - | - | - |
| 1777746140 | 14.44° C | 46% | 1013.4 hPa | 0 mm | - | - | - |
| 1777745841 | 13.89° C | 46% | 1013.4 hPa | 0 mm | - | - | - |
| 1777745540 | 13.89° C | 47% | 1013.4 hPa | 0 mm | - | - | - |
| 1777745241 | 13.89° C | 45% | 1013.4 hPa | 0 mm | - | - | - |
| 1777744941 | 13.33° C | 47% | 1013.4 hPa | 0 mm | - | - | - |
| 1777744642 | 13.33° C | 47% | 1013.6 hPa | 0 mm | - | - | - |
| 1777744341 | 13.33° C | 44% | 1013.6 hPa | 0 mm | - | - | - |
| 1777744041 | 13.33° C | 44% | 1013.6 hPa | 0 mm | - | - | - |
| 1777743741 | 13.33° C | 49% | 1013.7 hPa | 0 mm | - | - | - |
| 1777743441 | 13.33° C | 51% | 1013.7 hPa | 0 mm | - | - | - |
| 1777743144 | 12.78° C | 47% | 1013.6 hPa | 0 mm | - | - | - |
| 1777742838 | 13.33° C | 50% | 1013.6 hPa | 0 mm | - | - | - |
| 1777742539 | 13.33° C | 46% | 1013.8 hPa | 0 mm | - | - | - |
| 1777742239 | 12.78° C | 49% | 1013.7 hPa | 0 mm | - | - | - |
* Rain latest hour (hover to see other rain measurements)
** Current wind speed in m/s (hover to see current wind gust speed)